Orbital Elements at Epoch 2459000.5 (2020-May-31.0) TDB
Reference: JPL 20 (heliocentric ecliptic J2000)
Element | Value | Uncertainty (1-sigma) | Units |
e | .09393007924125552 | 4.6183e-08 | |
a | 2.381475945996026 | 8.9847e-09 | au |
q | 2.157783721677476 | 1.0755e-07 | au |
i | 3.001939991332336 | 3.9508e-06 | deg |
node | 122.9226354611839 | 7.7981e-05 | deg |
peri | 33.19182771202856 | 8.0105e-05 | deg |
M | 151.6010344376658 | 1.9283e-05 | deg |
tp | 2458435.215093401524 (2018-Nov-12.71509340) | 7.0733e-05 | TDB |
period | 1342.356054035541 3.68 | 7.5965e-06 2.08e-08 | d yr |
n | .2681851800181687 | 1.5177e-09 | deg/d |
Q | 2.605168170314577 | 9.8286e-09 | au |
|
| | Orbit Determination Parameters
Additional Information
|